Skip Page Navigation
NASA JPL Caltech
NASA Logo - Jet Propulsion Laboratory + View the NASA Portal
+ Center for Near-Earth Object Studies
JPL Home Earth Solar System Stars & Galaxies Technology
JPL Solar System Dynamics
BODIES ORBITS EPHEMERIDES TOOLS PHYSICAL DATA DISCOVERY FAQ SITE MAP
JPL Small-Body Database Browser
Search: [ help ]  
233766 (2008 TL104)
Classification: Main-belt Asteroid          SPK-ID: 2233766
Ephemeris | Orbit Diagram | Orbital Elements | Mission Design | Physical Parameters | Discovery Circumstances ]

[ show orbit diagram ]
Orbital Elements at Epoch 2459000.5 (2020-May-31.0) TDB
Reference: JPL 10 (heliocentric ecliptic J2000)
 Element Value Uncertainty (1-sigma)   Units 
e .1398173280501085 7.1424e-08  
a 2.563677859411635 2.334e-08 au
q 2.205231271127478 1.9052e-07 au
i 3.804335646431912 7.3538e-06 deg
node 234.2946234005575 0.00010093 deg
peri 96.79226522824021 0.00010406 deg
M 342.6207804954879 2.6853e-05 deg
tp 2459072.880465807927
(2020-Aug-11.38046581)
0.00011222 TDB
period 1499.317485695407
4.10
2.0475e-05
5.606e-08
d
yr
n .2401092519994365 3.2789e-09 deg/d
Q 2.922124447695791 2.6603e-08 au
  Orbit Determination Parameters
   # obs. used (total)      225  
   data-arc span      6286 days (17.21 yr)  
   first obs. used      2002-02-13  
   last obs. used      2019-05-01  
   planetary ephem.      DE431  
   SB-pert. ephem.      SB431-N16  
   condition code      0  
   norm. resid. RMS      .63585  
   source      ORB  
   producer      Otto Matic  
   solution date      2020-Feb-25 07:23:50  

Additional Information
 Earth MOID = 1.19854 au 
 Jupiter MOID = 2.42308 au 
 T_jup = 3.417 
[ show covariance matrix ]

Ephemeris | Orbit Diagram | Orbital Elements | Mission Design | Physical Parameters | Discovery Circumstances ]

Physical Parameter Table
Parameter Symbol Value Units Sigma Reference Notes
absolute magnitude H 16.8   n/a MPO433527  

233766 (2008 TL104)          Discovered 2008-Oct-06 by Spacewatch at Kitt Peak
Reference: 20100228/Numbers.arcLast Updated: 2010-03-03

Alternate Designations
 2008 TL104 = 2004 TU212 
Ephemeris | Orbit Diagram | Orbital Elements | Mission Design | Physical Parameters | Discovery Circumstances ]
ABOUT SSD CREDITS/AWARDS PRIVACY/COPYRIGHT GLOSSARY LINKS
FirstGov 2020-Aug-15 08:56 UT
(server date/time)  
NASA Home Page
Site Manager:   Ryan S. Park
Webmaster  Alan B. Chamberlin